Vorticity
9 13 14 16 19 21 19 19 19 19 18 15 14 14 15 13 12 11 10 9 9 11 14 18 20 22 21 23 25 23 12 1 -4 -2 3 8 14 17 14 14 16 18 21 23 25 25 24 18 15 14 18 20 23 25 21 5 -5 -7 1 12 17 17 15 11 3 -3 -3 7 14 14 9 1 -2 -2 -2 12 25 33 32 14 -3 -13 -7 5 14 18
11 12 10 13 16 19 21 19 18 18 19 16 15 15 16 14 13 12 11 9 9 11 14 18 21 22 23 24 26 22 11 -2 -7 -5 0 5 14 20 19 14 14 17 21 23 24 25 26 23 15 10 14 17 22 26 25 12 -1 -8 -6 6 14 16 15 13 7 0 -4 4 12 16 15 7 0 -4 -7 3 15 25 32 25 12 -0 -3 6 14 19
13 13 10 13 14 17 23 20 18 16 17 16 16 16 16 15 14 13 12 11 10 11 14 19 22 23 24 26 27 22 9 -6 -11 -10 -5 0 13 24 26 16 13 16 21 23 24 24 25 27 19 10 10 13 20 26 29 20 7 -5 -10 0 9 14 14 14 10 3 -3 2 8 14 18 14 7 -1 -7 -0 11 25 38 33 21 7 2 5 12 17
12 13 14 15 13 13 18 19 18 17 15 15 16 16 15 15 14 13 12 12 12 13 15 19 22 23 25 27 28 23 8 -8 -15 -14 -10 -4 10 25 33 20 14 16 21 24 25 24 24 26 22 15 8 8 14 22 31 28 17 2 -9 -4 5 12 13 14 11 6 -1 -0 4 9 15 16 13 6 -3 -3 7 22 36 30 18 7 3 5 10 14
11 12 14 15 14 13 14 16 17 17 15 15 15 15 15 14 15 15 13 11 12 13 16 19 22 24 25 29 30 24 8 -9 -16 -17 -13 -6 8 24 39 25 17 15 21 25 26 25 24 24 24 20 10 10 9 13 30 33 25 12 -3 -4 2 9 12 13 11 7 0 -2 -2 1 7 13 16 14 7 -2 1 13 27 19 11 6 5 5 8 12
12 12 13 12 12 14 18 18 18 17 15 13 13 13 14 15 16 15 13 12 12 13 17 20 22 24 25 30 31 25 9 -7 -16 -18 -14 -6 6 22 40 27 17 14 20 25 26 26 24 23 24 22 13 15 8 6 22 35 32 21 8 0 0 5 10 11 11 8 2 -3 -6 -6 -1 8 16 21 20 2 -6 1 27 14 7 5 8 7 9 12
14 14 13 9 10 12 18 19 20 19 17 15 13 11 12 13 14 13 12 12 13 15 18 20 22 24 25 30 32 26 9 -5 -14 -17 -15 -7 4 17 34 24 16 13 19 24 26 26 24 22 22 20 16 14 9 6 12 30 33 28 17 5 1 2 8 9 10 9 5 -2 -8 -9 -4 8 18 26 28 9 -8 -8 22 13 5 2 10 10 10 12
16 15 12 10 11 13 14 16 19 20 19 19 17 15 13 13 12 12 12 13 14 16 19 21 22 23 25 30 32 27 10 -2 -10 -14 -14 -7 0 10 23 20 15 14 19 24 26 26 24 22 20 18 16 11 9 9 7 21 30 30 22 10 4 3 6 7 8 9 8 -0 -7 -9 -3 10 24 34 34 14 -3 -8 11 10 3 -2 4 7 8 10
16 16 13 10 11 14 16 15 15 16 17 19 19 18 19 17 15 14 14 14 15 17 20 22 23 24 24 29 31 27 13 2 -6 -10 -12 -8 -3 3 13 19 18 16 20 25 27 27 24 22 20 18 15 9 10 10 3 12 24 32 29 17 10 7 6 5 6 9 10 2 -5 -8 -2 11 27 39 38 21 6 0 9 8 1 -6 -6 -1 3 6
15 16 15 10 9 11 17 17 16 14 13 14 15 15 16 18 19 18 15 15 16 18 20 22 24 25 25 28 30 28 17 7 -1 -6 -11 -9 -7 -3 6 20 23 21 21 25 27 27 25 21 19 17 15 9 9 11 8 9 19 28 31 23 17 13 9 4 4 8 13 6 -2 -5 -1 8 22 33 32 23 19 18 18 12 4 -3 -7 -4 -0 3
16 15 15 11 9 8 11 15 17 17 15 13 13 13 12 13 16 18 17 17 18 19 20 22 24 25 26 28 30 29 21 13 6 -2 -11 -9 -7 -4 3 22 27 26 21 25 27 28 25 21 19 17 16 8 6 9 15 13 18 24 26 23 20 17 13 4 3 8 14 8 1 -3 -1 3 12 20 15 17 23 30 30 22 13 5 -0 1 5 8
18 17 14 11 10 9 10 13 17 20 18 17 16 15 13 13 15 16 18 19 19 19 21 22 24 26 26 27 30 30 26 18 10 2 -8 -7 -4 0 6 26 30 26 21 24 26 27 26 21 19 17 17 9 2 1 9 12 19 23 22 21 21 20 15 5 4 7 14 9 3 -2 -3 -4 -1 1 -1 7 19 30 35 29 22 13 7 8 14 20
17 16 14 11 10 10 12 15 18 19 18 17 15 15 14 15 16 16 17 19 19 19 21 24 26 26 25 24 27 30 31 23 13 4 -5 -5 -3 1 9 27 30 25 21 24 25 25 27 21 18 17 17 12 2 -6 -5 9 20 25 20 20 20 19 13 5 4 7 14 10 4 -1 -5 -13 -16 -16 -14 -2 12 26 34 31 25 19 14 17 25 30
18 16 13 11 10 11 13 15 17 17 16 14 13 13 15 15 14 14 17 18 19 19 21 24 27 27 24 21 22 26 31 27 18 7 -3 -5 -5 -2 3 19 24 23 22 26 25 24 26 22 18 16 15 11 2 -6 -9 7 23 31 21 20 21 21 14 6 4 6 12 10 7 3 0 -12 -20 -23 -18 -7 6 20 32 33 30 26 25 31 32 28
18 17 13 11 11 11 12 14 15 15 15 15 16 18 19 16 14 14 16 18 19 20 21 24 27 27 23 17 17 22 27 28 24 16 6 -3 -7 -9 -7 8 15 18 23 27 27 25 24 23 20 15 13 6 -3 -11 -11 6 25 33 18 18 21 24 19 8 5 5 9 8 8 9 11 1 -9 -16 -15 -9 2 14 27 32 35 37 41 42 34 24
16 14 12 12 11 11 11 14 15 15 14 16 20 23 23 20 17 16 16 18 20 21 22 27 29 27 22 13 10 12 21 26 27 24 16 5 -5 -10 -8 3 10 15 21 27 29 27 25 24 21 16 12 3 -7 -15 -20 4 22 28 14 13 17 22 20 10 6 6 8 7 8 11 17 13 5 -3 -7 -7 -1 9 23 26 32 40 48 38 26 17
16 13 11 11 11 11 12 14 15 15 14 13 15 18 19 19 20 19 17 19 20 20 21 28 29 28 29 18 7 2 11 20 26 27 20 12 4 -1 -2 4 7 12 19 25 29 31 29 26 22 17 12 -2 -6 -9 -19 3 21 26 9 10 15 21 21 12 7 6 8 7 8 10 14 15 11 5 -2 -4 -1 8 22 22 23 24 29 20 13 10
13 12 11 10 10 11 13 15 16 15 13 12 12 13 14 15 16 17 15 17 17 19 23 27 23 18 21 26 21 11 3 13 25 30 23 16 13 11 10 9 8 10 16 24 31 35 32 26 22 18 10 -2 -9 -9 -6 9 20 22 9 9 14 20 23 13 8 6 10 8 8 9 9 11 9 5 0 -4 -1 8 23 26 21 11 3 3 3 3
12 11 10 9 10 11 13 15 16 16 14 13 13 14 14 14 14 14 13 13 13 17 26 31 24 14 7 19 27 26 9 12 24 35 32 24 21 20 21 19 16 14 15 24 35 41 35 26 21 17 7 -6 -7 -4 -1 14 22 22 12 9 13 19 22 15 9 7 10 10 9 8 6 8 7 4 -1 -4 1 12 26 30 27 18 7 6 7 9
14 12 9 10 11 12 12 14 16 16 13 13 14 16 15 16 15 14 13 13 13 16 25 27 24 17 9 14 21 22 8 11 23 35 38 28 23 23 27 26 25 23 21 25 35 41 38 29 23 15 2 -13 -10 3 16 21 27 27 15 11 14 19 23 16 10 7 8 9 9 8 5 5 4 2 -2 -4 5 18 30 29 28 26 26 25 25 26
14 12 10 11 12 12 13 15 15 14 11 12 14 16 16 17 16 14 13 14 16 18 23 21 19 17 16 14 20 22 12 11 21 32 35 25 17 14 19 19 22 24 25 27 34 40 39 33 24 11 -5 -18 -13 3 24 30 32 29 19 14 16 20 23 16 11 8 6 8 9 9 6 5 2 -2 -6 -6 6 21 31 27 25 25 30 31 29 28
14 14 13 12 12 12 14 15 14 13 12 13 14 15 17 18 17 15 14 15 15 17 20 18 18 17 15 15 17 17 12 10 18 28 30 21 12 5 4 8 12 15 19 26 31 38 47 39 25 7 -11 -23 -13 8 31 32 33 30 22 15 15 19 21 16 12 8 5 6 8 9 8 6 4 0 -6 -8 0 12 20 22 24 26 27 25 21 16
13 14 15 14 13 13 14 15 14 12 11 11 11 12 15 17 18 17 16 15 16 16 18 21 21 18 13 15 13 10 9 14 21 26 27 17 6 -1 2 14 16 14 15 22 25 32 48 45 29 6 -15 -28 -16 10 37 32 32 30 22 13 13 16 19 15 12 8 5 5 6 7 8 7 8 8 2 -7 -7 -4 -0 7 17 25 28 26 21 15
14 15 16 15 15 15 16 16 15 12 10 10 9 10 12 14 16 16 16 17 18 19 21 26 23 16 11 12 10 8 10 20 27 28 24 10 -4 -10 3 24 24 17 17 21 23 29 43 46 32 8 -18 -26 -16 5 32 31 30 27 20 13 12 15 17 15 12 9 6 6 5 5 6 8 12 14 9 -3 -10 -13 -16 -8 4 15 22 24 24 22
15 16 17 17 17 17 17 18 16 13 11 11 11 11 12 13 13 13 13 15 16 19 22 24 21 17 15 13 10 8 13 22 26 23 14 -3 -16 -15 10 28 27 20 19 23 24 29 43 48 34 8 -24 -24 -11 10 31 33 32 29 21 14 14 15 16 15 12 9 7 6 6 5 5 9 14 16 11 -2 -8 -9 -10 -8 -1 6 9 11 14 17
15 16 17 17 17 17 17 16 15 13 12 12 12 13 14 16 16 16 14 15 16 18 19 18 17 16 18 14 11 11 18 21 16 7 -3 -14 -19 -9 22 29 26 20 20 25 27 31 41 51 33 2 -30 -32 -15 9 29 38 40 36 24 19 17 17 16 15 12 10 7 6 6 6 6 8 13 15 10 -3 -5 -1 4 5 8 9 5 2 4 8
15 16 17 17 16 16 14 14 13 13 12 13 13 14 16 18 18 16 14 16 18 18 15 18 20 21 20 15 12 14 22 16 5 -6 -12 -18 -16 1 40 31 24 19 19 23 28 33 34 55 33 -6 -36 -38 -22 0 21 38 44 39 23 21 18 17 17 16 13 10 7 6 6 6 7 9 11 12 8 -2 -4 1 9 13 14 13 8 4 4 6
16 16 16 16 15 14 13 12 12 12 12 13 13 14 16 18 17 16 15 20 19 15 10 17 22 24 19 15 14 15 16 5 -1 -4 -5 -14 -10 10 49 34 25 19 15 17 28 38 34 50 25 -13 -36 -36 -23 -4 13 37 45 37 14 17 17 17 19 17 13 9 5 5 6 7 8 10 11 12 10 1 -0 3 10 13 13 11 7 5 6 8
15 15 16 16 15 14 12 13 13 13 13 13 13 14 16 16 15 16 19 23 19 11 7 16 21 21 18 18 16 11 1 -6 -2 4 4 -5 2 21 50 33 24 19 13 15 28 41 45 43 17 -14 -34 -30 -20 -6 10 39 47 38 14 14 14 15 17 16 13 8 3 3 5 8 11 12 13 13 12 6 5 7 11 12 11 9 5 5 7 11
14 15 16 16 15 14 13 14 14 15 14 14 14 14 16 14 14 16 22 24 17 9 6 17 22 22 20 20 14 4 -10 -7 3 11 9 1 13 33 50 29 20 14 8 21 33 41 42 42 19 -10 -31 -25 -19 -9 7 39 49 39 13 15 14 12 14 15 12 8 3 3 6 9 13 14 16 16 16 12 9 9 11 12 12 9 6 7 10 14
15 15 16 16 15 15 14 15 16 16 16 15 15 15 16 14 13 15 22 23 16 7 4 17 24 25 21 16 7 -1 -4 3 10 14 12 3 16 34 42 24 13 7 4 22 32 39 47 47 25 -4 -27 -20 -16 -10 4 38 48 38 10 16 16 13 13 14 13 10 5 5 7 11 14 17 19 20 20 14 10 9 10 12 12 11 9 10 13 16
15 15 15 15 15 15 16 17 18 18 18 17 16 16 15 13 13 15 21 23 17 8 0 15 24 26 17 7 -1 -3 3 12 15 15 13 7 18 30 33 15 5 3 12 23 24 28 47 51 36 9 -21 -17 -13 -4 10 37 45 36 13 17 18 17 15 15 14 12 9 9 11 13 15 18 20 22 20 13 9 8 11 12 11 10 9 10 13 16
15 14 14 14 15 16 19 21 21 20 19 18 17 16 14 12 12 15 22 23 18 8 -1 12 22 25 17 6 0 -0 6 12 16 16 12 9 18 29 30 10 -1 2 20 32 22 16 37 41 31 10 -18 -22 -23 -11 25 39 44 38 19 19 20 20 16 15 15 14 13 13 13 14 14 18 21 21 17 11 8 9 13 12 9 7 7 8 10 12
16 15 14 13 14 17 21 23 24 23 21 19 17 16 14 12 13 16 22 23 17 8 -1 8 18 23 20 13 9 8 8 11 14 15 11 5 11 21 28 10 3 7 22 34 25 18 33 31 17 -2 -16 -26 -37 -29 22 41 44 37 26 20 19 20 17 15 14 13 13 13 12 12 13 16 18 17 12 8 8 11 16 13 9 6 6 6 7 8
18 16 14 13 14 18 23 26 26 24 21 19 17 15 13 12 13 16 21 23 19 9 -2 3 13 22 21 18 16 14 13 14 16 16 9 2 4 11 19 14 14 16 19 25 26 28 35 33 14 -4 -6 -24 -49 -51 0 31 40 37 36 24 19 18 20 16 13 12 10 9 9 9 11 12 13 11 6 5 8 13 18 14 10 7 7 7 6 6
19 18 16 16 19 23 27 27 26 23 20 17 16 14 13 13 14 16 20 22 20 13 1 1 12 21 19 18 17 17 16 18 18 15 8 4 4 6 8 16 22 22 16 12 17 26 34 43 28 10 10 -5 -53 -72 -2 27 35 35 41 23 16 16 21 18 16 13 10 7 6 6 7 7 7 5 2 4 8 13 16 13 10 8 8 8 6 5
18 18 19 22 27 29 29 27 24 21 18 16 15 14 14 14 15 16 18 19 19 16 8 6 12 19 18 16 16 17 18 20 18 15 12 9 5 1 -3 16 27 28 17 12 10 12 20 40 41 34 31 15 -40 -69 -11 30 41 39 41 22 14 14 21 21 19 15 12 9 7 4 3 3 1 0 -0 4 7 10 12 10 8 8 9 8 7 6
17 17 19 27 32 33 28 24 21 19 17 15 14 14 14 15 16 16 15 15 16 17 15 11 11 12 11 13 15 18 19 18 16 15 18 17 8 -2 -7 15 30 35 22 19 13 7 6 24 33 39 45 34 -19 -59 -30 20 37 40 47 25 14 13 21 23 20 16 14 11 7 3 0 -1 -2 -2 -0 3 6 8 9 8 7 7 8 7 7 9
15 15 16 25 31 32 26 21 20 19 17 16 15 14 15 16 16 15 13 12 14 16 16 10 7 6 5 11 16 19 19 17 15 14 16 19 10 -0 -4 18 34 37 18 21 17 10 3 18 25 27 32 55 -6 -58 -7 18 30 37 46 25 14 14 21 23 20 16 15 13 8 4 0 -1 -0 1 5 9 10 11 12 13 13 12 10 8 8 12
14 12 12 17 23 25 24 22 20 19 17 16 15 15 15 16 16 14 11 11 13 14 13 6 2 0 4 13 19 20 19 17 17 15 10 13 10 5 2 22 38 38 16 16 20 19 8 16 22 26 26 49 1 -46 -18 24 38 37 36 22 15 16 24 26 22 17 15 14 12 8 5 5 7 10 14 16 17 18 20 22 21 19 14 11 11 14
14 11 8 9 12 16 19 21 21 20 19 17 16 15 15 15 14 14 13 13 15 15 13 7 4 3 6 14 20 22 20 17 15 14 10 11 12 12 10 25 37 36 17 14 19 23 18 14 20 28 33 35 3 -33 -41 20 40 38 27 19 13 13 22 27 26 21 15 14 13 12 11 12 14 16 17 17 18 20 23 24 21 17 12 9 10 13
17 13 9 8 10 14 18 21 22 21 20 18 17 15 14 14 14 14 15 16 17 17 15 12 11 11 10 12 18 23 20 17 14 11 10 15 16 14 12 27 37 36 17 15 15 16 17 19 24 30 37 38 7 -23 -21 23 39 36 23 17 13 13 17 23 25 23 18 16 14 13 13 13 14 14 14 13 15 16 17 15 12 9 7 8 9 10
20 15 10 9 12 15 20 23 24 24 23 20 18 16 15 15 14 14 15 16 17 18 18 16 16 15 9 8 15 23 21 18 14 10 6 18 18 13 10 24 36 38 22 19 13 9 9 20 29 35 40 34 10 -10 -2 30 40 34 19 15 14 14 16 20 24 25 21 18 16 14 12 10 10 10 9 9 10 10 9 7 6 7 10 16 17 16
18 13 9 11 13 16 19 23 25 25 23 21 20 19 17 16 15 15 15 15 15 16 18 19 19 14 6 7 14 21 22 19 16 12 8 13 14 13 12 22 31 36 30 23 15 8 5 16 25 34 42 32 11 -6 -1 26 39 37 24 13 11 13 14 18 22 23 22 21 20 18 16 14 12 11 9 9 9 9 8 8 10 13 17 20 22 22
12 9 8 10 12 14 17 23 26 26 23 21 20 20 19 18 17 15 14 14 14 14 15 20 20 16 8 8 12 17 19 18 15 12 14 13 14 16 16 21 29 34 30 28 21 13 9 14 20 27 37 30 11 -5 -3 19 30 33 31 19 13 11 14 17 18 17 16 20 23 25 24 23 21 17 14 13 12 12 12 12 13 14 15 15 15 16
8 6 6 8 9 11 13 19 24 27 23 21 20 20 20 19 17 15 13 11 10 9 12 16 17 16 14 12 11 12 12 12 9 6 9 8 15 21 20 20 23 28 30 29 25 20 18 17 19 24 30 21 7 -4 -2 16 27 31 30 19 14 13 15 15 11 7 8 13 19 22 23 25 25 23 19 17 16 14 13 12 11 10 8 7 7 8
7 5 5 5 7 9 10 16 22 25 22 21 20 20 20 18 16 13 10 6 6 8 15 16 13 11 17 14 11 8 8 7 6 6 8 9 15 22 26 24 19 16 23 27 25 23 24 21 19 19 24 17 6 -1 3 14 22 29 34 24 19 16 14 9 4 1 3 7 11 14 16 18 20 21 19 18 16 13 10 9 8 8 7 6 6 6
9 7 5 6 7 8 9 14 20 24 22 20 19 18 17 16 13 10 7 5 7 11 18 17 12 9 12 12 13 13 13 8 6 8 10 13 19 25 26 27 19 13 20 26 24 22 26 26 21 17 19 13 8 6 10 16 17 19 25 26 25 23 20 12 5 2 2 6 6 6 6 8 10 12 14 15 13 10 8 8 7 7 7 7 8 9
12 9 6 6 7 8 9 13 18 22 24 21 18 16 15 12 9 6 6 8 11 14 17 16 12 8 8 11 16 20 24 15 9 6 9 9 15 23 30 27 17 12 20 25 23 20 23 26 24 20 18 12 10 10 13 16 17 17 16 21 26 30 35 25 16 10 8 9 8 5 1 -1 0 3 7 8 8 7 8 8 6 4 4 4 6 9
14 11 7 6 7 8 9 12 17 22 24 21 17 14 14 10 7 5 8 12 14 16 15 15 12 8 7 13 19 24 27 18 10 6 7 9 12 18 28 25 17 11 15 22 20 16 14 20 22 21 20 12 10 12 15 18 20 17 8 11 19 29 43 36 24 13 9 13 14 13 9 1 -2 -2 -0 -0 2 4 6 7 4 0 -2 -2 -1 2
14 10 5 5 6 7 9 12 16 20 24 21 17 13 12 9 8 8 11 14 16 15 14 14 12 10 8 13 19 23 24 18 12 7 5 8 13 19 24 21 16 12 16 22 19 13 9 14 16 16 17 11 8 9 15 23 25 20 6 3 8 21 38 40 27 10 -1 6 15 24 28 17 7 -1 -7 -6 -1 5 7 8 4 -1 -5 -7 -8 -6
Height
2865 2865 2864 2864 2863 2862 2862 2862 2862 2861 2861 2861 2862 2862 2862 2863 2864 2864 2865 2866 2868 2869 2871 2872 2874 2875 2877 2879 2880 2883 2885 2886 2888 2890 2892 2894 2896 2899 2901 2903 2906 2909 2911 2914 2917 2920 2924 2927 2931 2935 2939 2944 2948 2952 2956 2960 2964 2968 2972 2976 2980 2985 2989 2993 2996 3000 3003 3006 3009 3012 3015 3018 3020 3023 3026 3029 3032 3034 3037 3040 3043 3046 3049 3052 3055 3059
2864 2863 2863 2862 2861 2861 2860 2861 2860 2860 2859 2859 2860 2860 2860 2861 2862 2862 2863 2864 2865 2867 2869 2870 2872 2873 2875 2876 2879 2881 2883 2884 2886 2888 2890 2891 2894 2896 2898 2900 2902 2905 2908 2911 2914 2917 2920 2924 2928 2932 2937 2941 2945 2950 2954 2958 2961 2965 2970 2974 2978 2982 2986 2990 2994 2997 3000 3003 3006 3009 3012 3015 3018 3021 3024 3027 3030 3032 3034 3037 3040 3044 3047 3050 3053 3057
2862 2861 2861 2860 2860 2860 2859 2859 2859 2859 2858 2858 2858 2858 2859 2859 2860 2860 2861 2862 2864 2865 2867 2868 2870 2871 2873 2874 2876 2879 2881 2882 2884 2885 2887 2889 2891 2894 2896 2898 2900 2903 2905 2908 2911 2914 2918 2921 2925 2930 2934 2939 2943 2947 2951 2955 2959 2963 2967 2971 2975 2979 2984 2988 2991 2995 2998 3001 3004 3007 3010 3013 3016 3019 3021 3025 3027 3029 3031 3035 3038 3042 3045 3047 3050 3054
2861 2860 2859 2859 2858 2858 2858 2857 2857 2857 2857 2856 2856 2856 2857 2857 2858 2858 2859 2860 2862 2863 2865 2866 2868 2869 2870 2872 2875 2877 2879 2880 2881 2883 2884 2886 2889 2891 2894 2897 2899 2901 2904 2906 2909 2912 2915 2919 2923 2927 2932 2937 2941 2945 2949 2953 2956 2960 2964 2968 2972 2976 2981 2985 2989 2992 2996 2999 3002 3005 3007 3010 3013 3016 3019 3023 3025 3027 3029 3033 3036 3040 3042 3045 3049 3052
2860 2859 2858 2857 2856 2856 2856 2856 2855 2855 2855 2855 2855 2855 2855 2855 2855 2856 2857 2859 2860 2861 2863 2864 2865 2867 2869 2870 2872 2875 2876 2877 2878 2880 2881 2883 2885 2888 2892 2895 2897 2899 2902 2904 2907 2910 2913 2917 2921 2925 2930 2935 2939 2943 2946 2950 2954 2958 2961 2965 2970 2974 2978 2982 2986 2990 2993 2996 3000 3002 3005 3008 3011 3014 3017 3020 3023 3025 3027 3031 3034 3037 3040 3043 3047 3050
2858 2857 2856 2855 2855 2855 2855 2854 2854 2854 2853 2853 2853 2853 2853 2853 2854 2855 2856 2857 2858 2859 2861 2862 2864 2865 2866 2868 2870 2872 2873 2874 2875 2877 2879 2881 2883 2885 2889 2892 2894 2896 2899 2902 2905 2907 2911 2915 2919 2923 2927 2932 2936 2940 2944 2948 2952 2955 2959 2963 2967 2971 2975 2980 2984 2987 2991 2994 2997 3000 3003 3006 3009 3011 3014 3017 3020 3021 3025 3029 3032 3035 3038 3041 3045 3048
2857 2856 2855 2855 2854 2853 2853 2853 2852 2852 2851 2851 2851 2851 2851 2852 2852 2853 2854 2855 2856 2857 2859 2860 2861 2863 2865 2866 2868 2870 2871 2872 2873 2875 2877 2879 2881 2883 2886 2889 2891 2894 2896 2899 2902 2905 2908 2912 2916 2920 2925 2929 2934 2938 2942 2946 2949 2953 2957 2961 2965 2969 2973 2977 2981 2985 2988 2991 2994 2997 3000 3004 3006 3009 3011 3015 3017 3019 3022 3026 3030 3032 3035 3039 3042 3045
2855 2854 2854 2853 2852 2852 2852 2851 2851 2850 2850 2850 2849 2849 2850 2850 2850 2851 2852 2853 2854 2855 2857 2858 2860 2861 2863 2864 2866 2867 2869 2870 2871 2873 2875 2877 2879 2881 2883 2886 2889 2892 2894 2897 2900 2903 2906 2910 2914 2918 2922 2927 2931 2936 2940 2944 2947 2951 2954 2958 2962 2966 2970 2975 2979 2982 2986 2989 2992 2995 2999 3002 3004 3006 3009 3012 3014 3017 3020 3024 3027 3030 3033 3036 3040 3043
2853 2853 2852 2852 2851 2850 2850 2850 2850 2850 2849 2848 2848 2848 2848 2848 2849 2849 2850 2851 2853 2854 2855 2856 2857 2859 2860 2862 2864 2865 2866 2868 2869 2871 2873 2875 2876 2879 2881 2884 2887 2889 2892 2895 2897 2900 2904 2907 2911 2915 2920 2925 2930 2934 2938 2942 2946 2949 2952 2955 2959 2964 2968 2972 2976 2980 2983 2986 2990 2993 2996 3000 3002 3004 3006 3009 3011 3014 3018 3021 3025 3028 3030 3033 3037 3040
2852 2851 2851 2850 2850 2849 2849 2848 2848 2848 2848 2847 2846 2846 2846 2846 2847 2848 2849 2850 2851 2851 2853 2854 2855 2857 2858 2860 2862 2863 2864 2865 2867 2869 2871 2873 2875 2876 2879 2881 2884 2887 2890 2892 2895 2898 2901 2905 2909 2913 2918 2923 2928 2933 2937 2941 2944 2947 2950 2953 2957 2961 2965 2970 2974 2977 2980 2984 2987 2991 2994 2998 3000 3001 3003 3006 3009 3012 3015 3018 3022 3025 3028 3031 3034 3038
2851 2850 2850 2849 2849 2848 2847 2847 2847 2846 2846 2846 2845 2845 2845 2845 2845 2846 2847 2848 2849 2850 2851 2852 2853 2855 2857 2858 2860 2861 2862 2864 2865 2867 2869 2871 2873 2874 2876 2878 2881 2884 2887 2890 2893 2896 2900 2903 2907 2911 2916 2921 2926 2930 2935 2939 2942 2945 2947 2950 2954 2958 2962 2967 2971 2975 2978 2981 2985 2989 2992 2995 2997 2999 3000 3003 3006 3010 3013 3016 3019 3023 3026 3029 3032 3035
2849 2849 2848 2848 2847 2847 2846 2846 2845 2845 2845 2845 2844 2844 2844 2844 2844 2845 2845 2846 2848 2848 2849 2850 2852 2853 2855 2856 2858 2859 2860 2862 2864 2866 2868 2870 2871 2873 2875 2876 2879 2881 2884 2887 2890 2894 2897 2901 2905 2910 2915 2920 2924 2929 2933 2937 2940 2942 2944 2947 2951 2955 2960 2964 2968 2972 2976 2980 2983 2986 2990 2993 2995 2996 2998 3001 3004 3008 3010 3014 3017 3020 3023 3026 3029 3031
2848 2847 2847 2846 2846 2845 2845 2845 2844 2844 2844 2843 2843 2843 2843 2843 2843 2844 2844 2845 2846 2847 2847 2849 2850 2852 2854 2855 2856 2857 2859 2860 2862 2864 2866 2868 2870 2871 2874 2875 2878 2880 2883 2886 2889 2892 2896 2900 2904 2908 2913 2918 2923 2927 2931 2935 2937 2939 2941 2945 2948 2953 2957 2962 2966 2970 2973 2977 2981 2984 2987 2990 2992 2994 2996 3000 3003 3006 3009 3011 3014 3017 3020 3023 3026 3028
2846 2846 2845 2845 2845 2844 2844 2843 2843 2842 2842 2842 2842 2841 2841 2842 2842 2843 2843 2844 2845 2845 2846 2847 2849 2850 2852 2854 2855 2856 2858 2859 2861 2863 2865 2866 2868 2870 2872 2874 2876 2879 2882 2885 2888 2891 2895 2898 2902 2906 2911 2916 2921 2925 2929 2932 2934 2936 2939 2942 2946 2950 2955 2960 2964 2967 2971 2975 2979 2982 2985 2987 2990 2993 2995 2999 3001 3004 3007 3009 3012 3015 3017 3020 3023 3025
2845 2844 2844 2843 2843 2843 2842 2842 2841 2841 2841 2841 2841 2840 2840 2841 2841 2841 2842 2842 2843 2844 2845 2846 2847 2849 2851 2852 2854 2855 2857 2859 2861 2863 2864 2865 2867 2869 2871 2873 2875 2878 2880 2883 2886 2889 2893 2896 2900 2905 2909 2914 2919 2924 2927 2930 2931 2933 2935 2939 2943 2948 2952 2957 2961 2965 2969 2973 2977 2980 2982 2985 2988 2991 2994 2998 3000 3003 3005 3007 3010 3012 3015 3017 3020 3023
2843 2842 2842 2842 2841 2841 2841 2840 2840 2840 2840 2840 2840 2840 2840 2840 2840 2840 2841 2841 2842 2843 2844 2845 2846 2848 2850 2851 2853 2855 2857 2858 2860 2862 2863 2865 2867 2869 2871 2873 2875 2877 2879 2882 2884 2887 2891 2895 2899 2903 2908 2913 2918 2922 2925 2927 2929 2930 2933 2937 2941 2945 2950 2955 2959 2963 2967 2971 2975 2978 2981 2984 2986 2990 2993 2996 2999 3001 3003 3005 3008 3010 3013 3015 3018 3021
2841 2841 2840 2840 2840 2840 2840 2839 2839 2839 2839 2839 2839 2838 2839 2839 2839 2839 2840 2840 2841 2842 2842 2843 2845 2847 2848 2850 2852 2854 2856 2858 2859 2860 2862 2864 2866 2869 2870 2872 2874 2876 2878 2880 2883 2886 2890 2894 2898 2902 2907 2912 2916 2920 2923 2925 2926 2928 2931 2935 2939 2943 2948 2953 2957 2961 2965 2970 2974 2977 2980 2982 2985 2988 2991 2995 2997 2999 3002 3004 3006 3009 3011 3014 3017 3020
2840 2840 2839 2839 2839 2839 2839 2838 2838 2838 2837 2837 2837 2837 2837 2837 2838 2838 2839 2839 2840 2840 2841 2842 2844 2845 2848 2849 2851 2853 2855 2857 2858 2860 2862 2864 2866 2868 2870 2871 2873 2875 2877 2879 2882 2885 2889 2893 2897 2901 2906 2911 2915 2918 2921 2923 2925 2926 2929 2933 2937 2941 2946 2951 2955 2960 2964 2968 2971 2975 2978 2981 2984 2987 2990 2993 2995 2998 3000 3002 3005 3008 3010 3013 3015 3018
2838 2838 2838 2837 2837 2837 2837 2837 2837 2837 2836 2836 2836 2836 2836 2836 2837 2837 2837 2838 2839 2839 2840 2841 2843 2845 2847 2849 2850 2852 2854 2856 2858 2860 2862 2864 2865 2867 2869 2870 2872 2874 2876 2878 2881 2885 2888 2891 2895 2900 2905 2910 2914 2917 2919 2921 2923 2924 2927 2930 2935 2939 2944 2949 2954 2958 2962 2966 2970 2973 2976 2979 2982 2985 2988 2991 2994 2996 2999 3001 3003 3006 3009 3011 3014 3017
2837 2837 2837 2836 2836 2836 2836 2836 2836 2835 2835 2835 2835 2835 2835 2835 2836 2836 2836 2837 2837 2838 2839 2840 2842 2844 2846 2848 2850 2852 2854 2855 2857 2859 2860 2862 2864 2866 2868 2870 2871 2873 2875 2877 2880 2883 2887 2891 2895 2899 2904 2908 2911 2915 2917 2919 2921 2922 2925 2928 2933 2938 2942 2947 2952 2956 2960 2964 2967 2971 2974 2977 2980 2983 2987 2990 2992 2995 2997 2999 3001 3004 3007 3010 3012 3015
2835 2835 2835 2835 2835 2835 2835 2835 2835 2834 2834 2834 2834 2834 2834 2835 2835 2835 2835 2836 2837 2838 2839 2840 2842 2844 2845 2848 2850 2852 2853 2854 2855 2857 2859 2861 2863 2865 2867 2869 2870 2871 2874 2876 2879 2882 2886 2890 2894 2898 2902 2906 2910 2912 2915 2917 2919 2921 2923 2926 2931 2936 2941 2946 2950 2955 2958 2962 2965 2969 2972 2975 2978 2981 2985 2989 2991 2994 2996 2998 3000 3003 3005 3008 3011 3014
2834 2834 2834 2834 2833 2833 2833 2833 2833 2833 2833 2833 2833 2833 2833 2834 2834 2834 2835 2835 2836 2837 2838 2839 2840 2843 2845 2846 2849 2850 2852 2853 2854 2856 2858 2860 2863 2865 2867 2868 2870 2871 2873 2875 2878 2881 2885 2889 2892 2895 2900 2904 2908 2910 2913 2915 2917 2919 2921 2925 2930 2935 2939 2944 2949 2953 2956 2960 2963 2967 2970 2973 2976 2980 2984 2987 2990 2993 2995 2997 2999 3002 3004 3007 3010 3012
2833 2832 2832 2832 2832 2832 2832 2832 2832 2832 2832 2832 2832 2832 2832 2832 2833 2833 2834 2835 2835 2836 2837 2838 2840 2842 2844 2846 2848 2850 2851 2852 2853 2855 2858 2860 2861 2863 2866 2867 2869 2870 2872 2874 2876 2880 2883 2887 2890 2893 2898 2903 2906 2908 2911 2913 2915 2918 2920 2924 2928 2933 2937 2942 2946 2951 2954 2958 2961 2965 2968 2971 2974 2978 2982 2986 2989 2991 2994 2996 2998 3000 3003 3006 3008 3010
2831 2831 2831 2831 2831 2831 2831 2831 2831 2831 2831 2831 2831 2831 2831 2831 2832 2832 2833 2834 2835 2835 2836 2838 2840 2842 2844 2845 2847 2849 2850 2852 2854 2855 2857 2858 2860 2862 2865 2866 2867 2869 2870 2872 2875 2878 2881 2885 2889 2892 2897 2901 2905 2906 2909 2911 2914 2916 2919 2922 2927 2931 2935 2940 2945 2949 2952 2956 2960 2963 2966 2969 2972 2976 2980 2984 2987 2990 2992 2995 2997 3000 3002 3004 3007 3009
2830 2830 2830 2830 2830 2830 2830 2830 2830 2830 2830 2831 2831 2831 2830 2831 2831 2831 2832 2833 2834 2835 2836 2838 2839 2841 2842 2844 2846 2848 2849 2851 2853 2854 2855 2856 2858 2861 2864 2864 2865 2867 2869 2871 2873 2876 2880 2884 2887 2890 2895 2900 2903 2905 2907 2910 2912 2915 2918 2921 2925 2930 2934 2938 2942 2946 2950 2954 2958 2961 2964 2968 2971 2974 2979 2982 2985 2988 2990 2993 2996 2999 3001 3003 3005 3007
2829 2829 2829 2828 2829 2829 2829 2829 2829 2829 2829 2829 2829 2829 2829 2829 2830 2830 2832 2833 2834 2835 2835 2837 2838 2840 2842 2844 2845 2847 2848 2850 2851 2852 2853 2855 2857 2860 2862 2863 2864 2866 2868 2870 2873 2876 2879 2883 2886 2889 2895 2898 2901 2903 2905 2908 2911 2913 2916 2920 2923 2928 2932 2936 2940 2944 2948 2952 2956 2959 2963 2966 2969 2973 2977 2980 2983 2986 2989 2991 2994 2996 2999 3001 3003 3006
2828 2827 2827 2827 2827 2827 2827 2827 2827 2828 2828 2828 2828 2828 2828 2829 2829 2830 2831 2832 2834 2835 2835 2836 2838 2840 2841 2843 2845 2846 2848 2849 2850 2850 2851 2853 2856 2859 2860 2862 2864 2866 2869 2871 2873 2875 2878 2881 2884 2888 2893 2896 2899 2901 2903 2906 2908 2910 2914 2917 2921 2925 2929 2934 2938 2942 2946 2950 2954 2957 2961 2964 2968 2971 2975 2979 2982 2985 2987 2990 2992 2994 2996 2999 3001 3004
2826 2826 2826 2826 2826 2826 2826 2826 2826 2826 2827 2827 2827 2827 2827 2828 2829 2830 2831 2832 2834 2835 2835 2836 2838 2839 2840 2842 2844 2845 2846 2847 2848 2849 2850 2852 2854 2856 2859 2860 2863 2866 2868 2870 2873 2875 2877 2880 2883 2886 2891 2895 2897 2900 2901 2903 2905 2907 2911 2914 2919 2923 2927 2931 2936 2940 2945 2948 2952 2955 2959 2963 2966 2970 2973 2977 2980 2983 2985 2988 2990 2992 2994 2996 2999 3002
2825 2825 2825 2825 2825 2825 2825 2825 2825 2825 2825 2825 2826 2826 2827 2828 2829 2830 2831 2832 2833 2834 2835 2836 2837 2838 2840 2841 2843 2844 2845 2846 2847 2848 2850 2851 2853 2855 2858 2860 2863 2865 2868 2870 2872 2874 2876 2879 2882 2885 2890 2894 2896 2898 2899 2900 2902 2905 2909 2912 2916 2920 2925 2929 2934 2939 2943 2947 2950 2954 2957 2961 2965 2968 2971 2975 2978 2981 2984 2986 2988 2990 2992 2994 2996 2999
2824 2823 2823 2823 2823 2823 2823 2823 2823 2824 2824 2825 2825 2826 2826 2827 2828 2829 2830 2832 2833 2834 2835 2836 2837 2838 2840 2841 2842 2843 2844 2845 2846 2848 2849 2850 2851 2854 2857 2860 2862 2865 2868 2870 2871 2873 2876 2877 2881 2885 2890 2892 2895 2896 2898 2899 2900 2904 2908 2911 2915 2919 2923 2927 2932 2936 2941 2945 2949 2952 2956 2960 2963 2966 2969 2973 2976 2979 2981 2984 2986 2988 2990 2992 2994 2997
2822 2822 2822 2822 2822 2822 2822 2822 2822 2823 2823 2824 2825 2825 2826 2827 2828 2829 2830 2831 2832 2834 2835 2836 2837 2838 2839 2840 2841 2842 2843 2844 2845 2846 2848 2848 2850 2853 2857 2860 2862 2864 2866 2869 2870 2871 2874 2877 2880 2884 2888 2890 2893 2895 2896 2897 2900 2903 2907 2910 2913 2917 2921 2925 2930 2935 2939 2943 2947 2951 2955 2958 2961 2964 2967 2970 2973 2976 2979 2981 2984 2986 2988 2990 2992 2995
2821 2821 2821 2821 2821 2821 2821 2821 2821 2822 2822 2823 2824 2825 2826 2827 2828 2829 2830 2831 2832 2833 2835 2835 2836 2837 2838 2839 2839 2840 2842 2843 2844 2845 2846 2846 2849 2852 2856 2859 2861 2863 2865 2867 2867 2867 2869 2875 2880 2883 2886 2889 2891 2893 2895 2896 2898 2902 2906 2908 2912 2915 2920 2924 2928 2933 2938 2942 2946 2950 2953 2956 2960 2963 2965 2968 2971 2974 2977 2979 2981 2983 2985 2988 2990 2992
2820 2820 2820 2820 2820 2820 2820 2820 2820 2821 2822 2823 2824 2825 2825 2826 2827 2828 2830 2831 2832 2833 2834 2835 2836 2837 2838 2839 2840 2840 2841 2842 2843 2844 2845 2846 2848 2851 2855 2858 2860 2862 2865 2866 2866 2867 2867 2873 2878 2882 2885 2887 2889 2891 2893 2894 2897 2900 2904 2907 2910 2914 2918 2923 2927 2931 2936 2940 2944 2948 2952 2955 2958 2961 2963 2966 2969 2972 2975 2977 2980 2981 2984 2985 2988 2990
2820 2819 2819 2819 2819 2819 2819 2819 2820 2820 2821 2822 2823 2825 2825 2826 2827 2828 2829 2830 2831 2833 2834 2835 2836 2837 2838 2839 2840 2840 2841 2842 2843 2844 2845 2845 2847 2850 2855 2858 2860 2862 2864 2865 2866 2868 2869 2872 2877 2881 2882 2885 2887 2889 2890 2892 2895 2900 2903 2906 2910 2913 2917 2921 2925 2930 2934 2938 2942 2946 2950 2953 2956 2959 2962 2965 2968 2970 2973 2975 2978 2980 2982 2985 2986 2989
2819 2819 2818 2818 2818 2818 2819 2819 2820 2820 2821 2822 2823 2824 2825 2826 2827 2828 2829 2830 2831 2832 2833 2834 2835 2837 2838 2839 2840 2840 2841 2841 2842 2843 2844 2845 2846 2849 2853 2856 2858 2860 2862 2864 2865 2866 2868 2870 2875 2880 2880 2882 2885 2887 2889 2891 2895 2899 2902 2906 2909 2912 2916 2920 2924 2928 2932 2936 2940 2943 2947 2950 2954 2957 2960 2964 2966 2969 2971 2974 2976 2979 2981 2984 2986 2988
2818 2818 2818 2818 2818 2818 2818 2819 2819 2820 2821 2822 2823 2824 2825 2826 2827 2828 2829 2830 2831 2832 2833 2834 2835 2836 2837 2838 2839 2840 2840 2841 2842 2843 2844 2845 2846 2848 2851 2855 2857 2859 2861 2863 2865 2865 2867 2869 2873 2877 2879 2880 2883 2886 2888 2890 2894 2898 2902 2905 2908 2912 2915 2919 2923 2927 2931 2934 2938 2941 2945 2948 2952 2955 2959 2962 2965 2967 2970 2972 2975 2977 2980 2983 2986 2989
2818 2818 2818 2818 2818 2818 2818 2819 2819 2820 2821 2822 2823 2824 2825 2826 2827 2828 2829 2830 2831 2831 2832 2833 2834 2836 2837 2838 2839 2840 2840 2841 2842 2843 2844 2845 2846 2848 2850 2854 2857 2859 2861 2863 2864 2865 2867 2869 2872 2875 2878 2879 2881 2885 2887 2889 2893 2897 2901 2904 2907 2910 2914 2918 2922 2926 2929 2932 2936 2939 2942 2946 2950 2953 2957 2960 2963 2966 2969 2971 2974 2976 2979 2982 2985 2988
2818 2818 2818 2818 2818 2818 2818 2819 2820 2820 2821 2822 2823 2824 2825 2826 2827 2828 2829 2830 2831 2831 2832 2833 2834 2835 2837 2838 2839 2840 2840 2841 2842 2843 2844 2845 2846 2847 2850 2853 2856 2859 2861 2862 2863 2865 2867 2869 2871 2875 2877 2878 2881 2885 2887 2889 2892 2896 2899 2902 2905 2908 2912 2916 2920 2924 2927 2930 2934 2937 2941 2945 2948 2951 2955 2958 2961 2964 2967 2970 2972 2975 2978 2981 2984 2986
2818 2818 2818 2818 2818 2818 2819 2819 2820 2821 2822 2823 2824 2825 2825 2826 2827 2828 2829 2830 2831 2832 2832 2833 2834 2835 2836 2838 2839 2840 2840 2841 2842 2843 2844 2844 2845 2847 2849 2852 2855 2858 2860 2861 2863 2864 2866 2867 2869 2871 2875 2878 2881 2885 2887 2888 2890 2893 2896 2900 2903 2906 2910 2915 2918 2922 2925 2929 2932 2936 2940 2943 2946 2950 2952 2955 2958 2961 2964 2967 2970 2973 2976 2979 2982 2985
2819 2819 2819 2819 2819 2819 2819 2820 2820 2821 2822 2823 2824 2825 2826 2827 2828 2829 2830 2830 2831 2832 2832 2833 2834 2835 2836 2837 2839 2840 2840 2841 2842 2843 2844 2845 2845 2847 2849 2851 2854 2857 2859 2861 2863 2864 2866 2867 2867 2869 2872 2877 2881 2884 2885 2886 2888 2892 2896 2900 2903 2906 2910 2913 2916 2920 2924 2927 2931 2934 2938 2941 2945 2948 2951 2954 2956 2959 2962 2965 2968 2971 2974 2976 2979 2982
2819 2819 2820 2820 2820 2820 2820 2821 2821 2822 2823 2824 2825 2825 2826 2827 2828 2829 2830 2831 2832 2832 2833 2833 2834 2835 2836 2837 2838 2839 2840 2842 2843 2843 2844 2845 2846 2847 2848 2850 2853 2855 2858 2860 2862 2864 2865 2866 2867 2869 2872 2877 2881 2884 2885 2886 2889 2893 2897 2900 2902 2905 2908 2911 2915 2918 2922 2926 2930 2933 2937 2940 2944 2947 2950 2953 2956 2958 2961 2964 2967 2970 2973 2975 2978 2980
2820 2820 2820 2821 2821 2821 2821 2822 2822 2823 2823 2824 2825 2825 2826 2827 2829 2830 2830 2831 2832 2832 2833 2834 2834 2835 2836 2837 2838 2839 2840 2841 2842 2843 2844 2845 2845 2846 2848 2850 2852 2854 2856 2860 2862 2864 2865 2865 2867 2870 2873 2877 2881 2884 2886 2887 2889 2892 2895 2898 2900 2903 2906 2910 2913 2917 2921 2925 2929 2933 2936 2940 2943 2946 2949 2952 2955 2958 2961 2964 2967 2969 2972 2975 2978 2980
2821 2821 2822 2822 2822 2822 2822 2822 2823 2823 2824 2825 2825 2826 2827 2828 2829 2830 2831 2831 2832 2833 2833 2834 2834 2835 2835 2836 2837 2839 2840 2841 2842 2842 2843 2844 2845 2846 2847 2850 2852 2855 2858 2860 2862 2863 2864 2865 2867 2870 2872 2876 2880 2883 2885 2886 2888 2891 2893 2896 2899 2902 2905 2909 2912 2916 2920 2924 2927 2931 2935 2938 2941 2944 2948 2951 2955 2958 2961 2964 2966 2969 2972 2974 2977 2980
2823 2823 2823 2823 2823 2823 2823 2823 2824 2824 2825 2825 2826 2827 2828 2829 2830 2830 2831 2832 2832 2833 2834 2834 2835 2835 2835 2836 2837 2838 2839 2840 2841 2842 2843 2844 2845 2846 2847 2849 2852 2856 2859 2860 2861 2864 2865 2866 2868 2870 2872 2876 2880 2884 2885 2886 2887 2890 2892 2895 2898 2901 2903 2906 2910 2915 2919 2922 2926 2929 2932 2936 2939 2942 2946 2950 2954 2957 2960 2963 2966 2969 2971 2974 2976 2979
2824 2824 2824 2824 2824 2824 2824 2825 2825 2825 2825 2826 2827 2827 2828 2829 2830 2831 2832 2832 2833 2834 2834 2835 2835 2836 2836 2836 2837 2838 2840 2840 2842 2843 2844 2845 2845 2846 2847 2849 2851 2854 2857 2859 2861 2863 2865 2866 2868 2870 2873 2876 2880 2883 2885 2885 2887 2889 2892 2895 2897 2900 2902 2906 2910 2914 2918 2921 2925 2929 2932 2935 2938 2942 2945 2949 2952 2955 2958 2961 2965 2968 2970 2973 2975 2978
2825 2825 2825 2825 2825 2825 2826 2826 2826 2826 2826 2827 2828 2828 2829 2830 2831 2832 2832 2833 2834 2835 2835 2836 2836 2837 2837 2837 2838 2839 2840 2841 2842 2843 2845 2845 2846 2846 2847 2848 2850 2853 2855 2858 2860 2863 2865 2865 2867 2870 2873 2876 2880 2882 2884 2885 2886 2889 2892 2895 2897 2900 2903 2907 2911 2915 2918 2921 2924 2928 2931 2934 2937 2940 2944 2947 2950 2953 2957 2960 2963 2966 2970 2972 2975 2978
2827 2827 2826 2827 2827 2827 2827 2827 2827 2827 2828 2828 2829 2830 2830 2831 2832 2833 2833 2834 2835 2836 2836 2837 2837 2838 2838 2838 2839 2840 2840 2841 2842 2844 2845 2846 2846 2846 2847 2848 2850 2852 2855 2857 2860 2864 2865 2866 2868 2870 2873 2876 2879 2882 2884 2885 2887 2889 2891 2894 2897 2900 2904 2907 2910 2913 2916 2920 2924 2927 2930 2933 2936 2939 2942 2945 2948 2952 2955 2959 2963 2966 2969 2972 2975 2978
2828 2828 2828 2828 2828 2828 2829 2829 2829 2829 2829 2829 2830 2830 2831 2832 2833 2834 2834 2835 2835 2836 2837 2837 2838 2838 2838 2839 2839 2840 2840 2841 2842 2844 2845 2846 2846 2846 2847 2848 2850 2852 2855 2856 2859 2863 2866 2867 2869 2871 2874 2876 2879 2881 2884 2886 2887 2888 2890 2894 2897 2901 2903 2906 2908 2911 2915 2919 2922 2926 2930 2932 2935 2938 2940 2944 2947 2951 2954 2958 2962 2965 2969 2971 2974 2977
2830 2830 2830 2830 2830 2830 2830 2830 2830 2830 2830 2830 2831 2832 2833 2833 2834 2835 2835 2835 2836 2836 2837 2838 2838 2838 2839 2839 2839 2840 2840 2841 2842 2843 2845 2845 2846 2846 2848 2849 2850 2852 2854 2856 2859 2862 2865 2867 2869 2871 2874 2877 2879 2881 2884 2886 2887 2889 2891 2894 2897 2900 2903 2906 2908 2911 2914 2918 2922 2925 2929 2932 2935 2938 2940 2943 2946 2949 2952 2956 2960 2964 2968 2971 2974 2976
2831 2831 2831 2831 2831 2831 2831 2832 2832 2831 2832 2832 2832 2833 2834 2835 2835 2835 2836 2836 2836 2836 2837 2838 2838 2839 2839 2839 2840 2840 2840 2841 2842 2844 2845 2846 2846 2847 2849 2850 2851 2852 2854 2856 2858 2861 2865 2867 2869 2871 2873 2876 2879 2881 2884 2886 2887 2889 2891 2894 2897 2900 2903 2906 2908 2910 2913 2917 2921 2925 2929 2932 2935 2938 2940 2942 2945 2948 2951 2955 2959 2963 2967 2970 2973 2975
2833 2833 2833 2833 2833 2833 2833 2833 2833 2833 2833 2833 2834 2834 2835 2836 2836 2837 2837 2837 2837 2837 2837 2838 2839 2840 2840 2840 2840 2840 2841 2841 2842 2844 2845 2846 2847 2848 2849 2850 2851 2852 2854 2856 2858 2861 2864 2866 2868 2870 2873 2875 2878 2881 2883 2886 2888 2890 2892 2895 2897 2900 2903 2905 2908 2909 2911 2914 2919 2925 2929 2932 2935 2937 2940 2942 2944 2947 2950 2954 2957 2961 2965 2969 2971 2974